[Date Prev][Date Next][Thread Prev][Thread Next] - [Date Index][Thread Index][Author Index]

2 Line ISS Keps 9-2



ISS
1 25544U 98067A   01245.11064815  .00031253  00000-0  41847-3 0  4152
2 25544  51.6402  61.4136 0008470  60.6100  95.8912 15.57677527159082


----
Via the sarex mailing list at AMSAT.ORG courtesy of AMSAT-NA.
To unsubscribe, send "unsubscribe sarex" to Majordomo@amsat.org



AMSAT Top AMSAT Home